Year,Month,Day,Hour,Minute,Value (Times are PST for windspeed in km/hr)
2018,06,18,00,00,12.20
2018,06,18,00,01,6.40
2018,06,18,00,02,11.90
2018,06,18,00,03,9.40
2018,06,18,00,04,17.50
2018,06,18,00,05,17.90
2018,06,18,00,06,7.80
2018,06,18,00,07,13.50
2018,06,18,00,08,14.60
2018,06,18,00,09,10.80
2018,06,18,00,10,8.90
2018,06,18,00,11,18.90
2018,06,18,00,12,9.20
2018,06,18,00,13,13.70
2018,06,18,00,14,7.60
2018,06,18,00,15,8.50
2018,06,18,00,16,8.50
2018,06,18,00,17,9.10
2018,06,18,00,18,10.10
2018,06,18,00,19,5.10
2018,06,18,00,20,10.70
2018,06,18,00,21,3.00
2018,06,18,00,22,3.70
2018,06,18,00,23,12.90
2018,06,18,00,24,10.60
2018,06,18,00,25,6.90
2018,06,18,00,26,4.30
2018,06,18,00,27,10.20
2018,06,18,00,28,7.50
2018,06,18,00,29,2.80
2018,06,18,00,30,4.00
2018,06,18,00,31,5.10
2018,06,18,00,32,9.50
2018,06,18,00,33,7.30
2018,06,18,00,34,2.80
2018,06,18,00,35,2.90
2018,06,18,00,36,0.20
2018,06,18,00,37,7.00
2018,06,18,00,38,5.90
2018,06,18,00,39,12.10
2018,06,18,00,40,5.00
2018,06,18,00,41,8.60
2018,06,18,00,42,6.70
2018,06,18,00,43,8.30
2018,06,18,00,44,10.10
2018,06,18,00,45,6.60
2018,06,18,00,46,10.10
2018,06,18,00,47,5.50
2018,06,18,00,48,8.70
2018,06,18,00,49,6.00
2018,06,18,00,50,4.80
2018,06,18,00,51,8.60
2018,06,18,00,52,7.90
2018,06,18,00,53,10.50
2018,06,18,00,54,17.50
2018,06,18,00,55,15.20
2018,06,18,00,56,6.80
2018,06,18,00,57,8.00
2018,06,18,00,58,11.70
2018,06,18,00,59,10.20
2018,06,18,01,00,7.00
2018,06,18,01,01,13.80
2018,06,18,01,02,14.60
2018,06,18,01,03,12.80
2018,06,18,01,04,8.70
2018,06,18,01,05,11.90
2018,06,18,01,06,10.90
2018,06,18,01,07,11.30
2018,06,18,01,08,16.00
2018,06,18,01,09,15.00
2018,06,18,01,10,16.90
2018,06,18,01,11,5.30
2018,06,18,01,12,10.10
2018,06,18,01,13,13.50
2018,06,18,01,14,10.70
2018,06,18,01,15,12.20
2018,06,18,01,16,9.20
2018,06,18,01,17,8.50
2018,06,18,01,18,9.60
2018,06,18,01,19,8.10
2018,06,18,01,20,11.30
2018,06,18,01,21,10.00
2018,06,18,01,22,5.70
2018,06,18,01,23,8.10
2018,06,18,01,24,21.30
2018,06,18,01,25,11.60
2018,06,18,01,26,8.40
2018,06,18,01,27,17.20
2018,06,18,01,28,13.00
2018,06,18,01,29,15.90
2018,06,18,01,30,8.00
2018,06,18,01,31,4.30
2018,06,18,01,32,7.90
2018,06,18,01,33,12.60
2018,06,18,01,34,15.80
2018,06,18,01,35,9.50
2018,06,18,01,36,8.50
2018,06,18,01,37,5.50
2018,06,18,01,38,4.30
2018,06,18,01,39,4.30
2018,06,18,01,40,12.70
2018,06,18,01,41,6.00
2018,06,18,01,42,8.00
2018,06,18,01,43,5.00
2018,06,18,01,44,3.60
2018,06,18,01,45,2.30
2018,06,18,01,46,2.50
2018,06,18,01,47,1.10
2018,06,18,01,48,8.90
2018,06,18,01,49,8.90
2018,06,18,01,50,7.60
2018,06,18,01,51,10.50
2018,06,18,01,52,13.50
2018,06,18,01,53,17.40
2018,06,18,01,54,8.90
2018,06,18,01,55,10.60
2018,06,18,01,56,8.50
2018,06,18,01,57,13.90
2018,06,18,01,58,6.40
2018,06,18,01,59,10.10
2018,06,18,02,00,7.70
2018,06,18,02,01,6.30
2018,06,18,02,02,5.10
2018,06,18,02,03,7.50
2018,06,18,02,04,5.00
2018,06,18,02,05,3.80
2018,06,18,02,06,0.30
2018,06,18,02,07,2.80
2018,06,18,02,08,0.00
2018,06,18,02,09,0.10
2018,06,18,02,10,0.00
2018,06,18,02,11,2.60
2018,06,18,02,12,0.00
2018,06,18,02,13,0.40
2018,06,18,02,14,0.30
2018,06,18,02,15,2.10
2018,06,18,02,16,1.90
2018,06,18,02,17,6.40
2018,06,18,02,18,5.00
2018,06,18,02,19,3.10
2018,06,18,02,20,2.80
2018,06,18,02,21,0.10
2018,06,18,02,22,0.30
2018,06,18,02,23,1.70
2018,06,18,02,24,1.40
2018,06,18,02,25,0.60
2018,06,18,02,26,1.80
2018,06,18,02,27,3.10
2018,06,18,02,28,1.60
2018,06,18,02,29,5.90
2018,06,18,02,30,7.90
2018,06,18,02,31,9.90
2018,06,18,02,32,4.60
2018,06,18,02,33,7.10
2018,06,18,02,34,2.40
2018,06,18,02,35,0.30
2018,06,18,02,36,4.80
2018,06,18,02,37,4.50
2018,06,18,02,38,2.10
2018,06,18,02,39,1.30
2018,06,18,02,40,0.30
2018,06,18,02,41,2.40
2018,06,18,02,42,5.00
2018,06,18,02,43,3.90
2018,06,18,02,44,2.30
2018,06,18,02,45,1.70
2018,06,18,02,46,1.10
2018,06,18,02,47,4.30
2018,06,18,02,48,1.50
2018,06,18,02,49,3.70
2018,06,18,02,50,2.70
2018,06,18,02,51,3.40
2018,06,18,02,52,1.80
2018,06,18,02,53,0.60
2018,06,18,02,54,5.00
2018,06,18,02,55,2.70
2018,06,18,02,56,1.70
2018,06,18,02,57,2.70
2018,06,18,02,58,1.30
2018,06,18,02,59,0.20
2018,06,18,03,00,0.10
2018,06,18,03,01,0.00
2018,06,18,03,02,0.00
2018,06,18,03,03,1.50
2018,06,18,03,04,4.30
2018,06,18,03,05,7.60
2018,06,18,03,06,3.90
2018,06,18,03,07,2.70
2018,06,18,03,08,5.70
2018,06,18,03,09,5.10
2018,06,18,03,10,5.00
2018,06,18,03,11,6.10
2018,06,18,03,12,6.90
2018,06,18,03,13,4.20
2018,06,18,03,14,3.30
2018,06,18,03,15,0.90
2018,06,18,03,16,3.10
2018,06,18,03,17,7.50
2018,06,18,03,18,4.20
2018,06,18,03,19,1.10
2018,06,18,03,20,4.00
2018,06,18,03,21,3.10
2018,06,18,03,22,0.60
2018,06,18,03,23,1.70
2018,06,18,03,24,1.10
2018,06,18,03,25,0.80
2018,06,18,03,26,0.10
2018,06,18,03,27,1.80
2018,06,18,03,28,1.60
2018,06,18,03,29,0.30
2018,06,18,03,30,4.80
2018,06,18,03,31,7.20
2018,06,18,03,32,14.20
2018,06,18,03,33,12.90
2018,06,18,03,34,9.40
2018,06,18,03,35,8.30
2018,06,18,03,36,6.80
2018,06,18,03,37,3.90
2018,06,18,03,38,7.90
2018,06,18,03,39,4.40
2018,06,18,03,40,1.80
2018,06,18,03,41,1.00
2018,06,18,03,42,4.70
2018,06,18,03,43,0.80
2018,06,18,03,44,0.10
2018,06,18,03,45,0.30
2018,06,18,03,46,0.60
2018,06,18,03,47,1.40
2018,06,18,03,48,0.00
2018,06,18,03,49,4.70
2018,06,18,03,50,5.30
2018,06,18,03,51,1.10
2018,06,18,03,52,1.80
2018,06,18,03,53,0.00
2018,06,18,03,54,0.00
2018,06,18,03,55,0.00
2018,06,18,03,56,1.40
2018,06,18,03,57,1.90
2018,06,18,03,58,6.10
2018,06,18,03,59,3.00
2018,06,18,04,00,6.50
2018,06,18,04,01,0.80
2018,06,18,04,02,5.80
2018,06,18,04,03,6.70
2018,06,18,04,04,4.40
2018,06,18,04,05,6.90
2018,06,18,04,06,7.70
2018,06,18,04,07,9.30
2018,06,18,04,08,10.00
2018,06,18,04,09,8.20
2018,06,18,04,10,8.20
2018,06,18,04,11,5.00
2018,06,18,04,12,4.70
2018,06,18,04,13,5.30
2018,06,18,04,14,0.90
2018,06,18,04,15,0.00
2018,06,18,04,16,3.70
2018,06,18,04,17,3.10
2018,06,18,04,18,0.90
2018,06,18,04,19,0.60
2018,06,18,04,20,3.90
2018,06,18,04,21,3.00
2018,06,18,04,22,4.40
2018,06,18,04,23,5.60
2018,06,18,04,24,5.50
2018,06,18,04,25,2.70
2018,06,18,04,26,4.10
2018,06,18,04,27,3.90
2018,06,18,04,28,0.80
2018,06,18,04,29,0.00
2018,06,18,04,30,0.30
2018,06,18,04,31,0.00
2018,06,18,04,32,0.10
2018,06,18,04,33,0.00
2018,06,18,04,34,0.00
2018,06,18,04,35,0.00
2018,06,18,04,36,0.00
2018,06,18,04,37,0.00
2018,06,18,04,38,0.00
2018,06,18,04,39,0.00
2018,06,18,04,40,0.00
2018,06,18,04,41,0.00
2018,06,18,04,42,0.60
2018,06,18,04,43,0.10
2018,06,18,04,44,1.20
2018,06,18,04,45,4.20
2018,06,18,04,46,1.90
2018,06,18,04,47,0.00
2018,06,18,04,48,1.30
2018,06,18,04,49,4.20
2018,06,18,04,50,4.10
2018,06,18,04,51,6.90
2018,06,18,04,52,0.80
2018,06,18,04,53,0.60
2018,06,18,04,54,0.50
2018,06,18,04,55,0.80
2018,06,18,04,56,1.80
2018,06,18,04,57,6.00
2018,06,18,04,58,2.40
2018,06,18,04,59,5.30
2018,06,18,05,00,0.90
2018,06,18,05,01,1.40
2018,06,18,05,02,3.00
2018,06,18,05,03,0.30
2018,06,18,05,04,1.80
2018,06,18,05,05,0.00
2018,06,18,05,06,4.50
2018,06,18,05,07,3.10
2018,06,18,05,08,0.40
2018,06,18,05,09,1.40
2018,06,18,05,10,1.60
2018,06,18,05,11,3.20
2018,06,18,05,12,0.10
2018,06,18,05,13,0.00
2018,06,18,05,14,0.10
2018,06,18,05,15,0.00
2018,06,18,05,16,0.00
2018,06,18,05,17,0.60
2018,06,18,05,18,6.30
2018,06,18,05,19,1.20
2018,06,18,05,20,0.80
2018,06,18,05,21,3.80
2018,06,18,05,22,5.20
2018,06,18,05,23,4.70
2018,06,18,05,24,2.90
2018,06,18,05,25,8.30
2018,06,18,05,26,7.00
2018,06,18,05,27,4.10
2018,06,18,05,28,6.40
2018,06,18,05,29,4.70
2018,06,18,05,30,4.20
2018,06,18,05,31,7.60
2018,06,18,05,32,7.60
2018,06,18,05,33,2.60
2018,06,18,05,34,0.60
2018,06,18,05,35,0.80
2018,06,18,05,36,4.30
2018,06,18,05,37,13.80
2018,06,18,05,38,6.00
2018,06,18,05,39,5.20
2018,06,18,05,40,10.70
2018,06,18,05,41,7.70
2018,06,18,05,42,8.40
2018,06,18,05,43,5.50
2018,06,18,05,44,5.20
2018,06,18,05,45,3.60
2018,06,18,05,46,2.10
2018,06,18,05,47,2.10
2018,06,18,05,48,9.00
2018,06,18,05,49,8.10
2018,06,18,05,50,2.80
2018,06,18,05,51,7.60
2018,06,18,05,52,10.70
2018,06,18,05,53,14.60
2018,06,18,05,54,10.40
2018,06,18,05,55,9.50
2018,06,18,05,56,7.40
2018,06,18,05,57,6.40
2018,06,18,05,58,13.20
2018,06,18,05,59,10.90
2018,06,18,06,00,6.40
2018,06,18,06,01,11.40
2018,06,18,06,02,4.70
2018,06,18,06,03,10.20
2018,06,18,06,04,10.90
2018,06,18,06,05,11.20
2018,06,18,06,06,16.30
2018,06,18,06,07,9.70
2018,06,18,06,08,6.20
2018,06,18,06,09,8.50
2018,06,18,06,10,6.00
2018,06,18,06,11,12.70
2018,06,18,06,12,14.50
2018,06,18,06,13,14.50
2018,06,18,06,14,11.40
2018,06,18,06,15,7.70
2018,06,18,06,16,3.60
2018,06,18,06,17,5.40
2018,06,18,06,18,2.70
2018,06,18,06,19,3.10
2018,06,18,06,20,5.00
2018,06,18,06,21,4.40
2018,06,18,06,22,12.30
2018,06,18,06,23,13.90
2018,06,18,06,24,5.20
2018,06,18,06,25,7.00
2018,06,18,06,26,10.20
2018,06,18,06,27,13.50
2018,06,18,06,28,8.60
2018,06,18,06,29,10.10
2018,06,18,06,30,13.00
2018,06,18,06,31,15.60
2018,06,18,06,32,7.40
2018,06,18,06,33,8.40
2018,06,18,06,34,14.20
2018,06,18,06,35,11.80
2018,06,18,06,36,11.70
2018,06,18,06,37,8.30
2018,06,18,06,38,3.20
2018,06,18,06,39,4.70
2018,06,18,06,40,2.80
2018,06,18,06,41,5.10
2018,06,18,06,42,2.90
2018,06,18,06,43,6.90
2018,06,18,06,44,17.60
2018,06,18,06,45,10.80
2018,06,18,06,46,4.70
2018,06,18,06,47,8.00
2018,06,18,06,48,10.10
2018,06,18,06,49,3.60
2018,06,18,06,50,6.10
2018,06,18,06,51,7.10
2018,06,18,06,52,10.30
2018,06,18,06,53,4.00
2018,06,18,06,54,11.50
2018,06,18,06,55,13.10
2018,06,18,06,56,15.00
2018,06,18,06,57,8.80
2018,06,18,06,58,6.90
2018,06,18,06,59,2.90
2018,06,18,07,00,11.00
2018,06,18,07,01,3.90
2018,06,18,07,02,5.10
2018,06,18,07,03,13.60
2018,06,18,07,04,7.70
2018,06,18,07,05,2.80
2018,06,18,07,06,8.10
2018,06,18,07,07,14.00
2018,06,18,07,08,9.40
2018,06,18,07,09,4.30
2018,06,18,07,10,6.40
2018,06,18,07,11,5.70
2018,06,18,07,12,11.40
2018,06,18,07,13,7.50
2018,06,18,07,14,8.30
2018,06,18,07,15,5.10
2018,06,18,07,16,8.40
2018,06,18,07,17,7.50
2018,06,18,07,18,10.00
2018,06,18,07,19,12.70
2018,06,18,07,20,9.70
2018,06,18,07,21,5.70
2018,06,18,07,22,5.40
2018,06,18,07,23,6.20
2018,06,18,07,24,6.40
2018,06,18,07,25,7.20
2018,06,18,07,26,4.50
2018,06,18,07,27,8.40
2018,06,18,07,28,7.70
2018,06,18,07,29,6.50
2018,06,18,07,30,12.20
2018,06,18,07,31,8.50
2018,06,18,07,32,10.70
2018,06,18,07,33,13.40
2018,06,18,07,34,4.70
2018,06,18,07,35,8.20
2018,06,18,07,36,6.40
2018,06,18,07,37,1.90
2018,06,18,07,38,2.80
2018,06,18,07,39,2.70
2018,06,18,07,40,4.50
2018,06,18,07,41,8.40
2018,06,18,07,42,1.40
2018,06,18,07,43,6.10
2018,06,18,07,44,16.10
2018,06,18,07,45,11.30
2018,06,18,07,46,5.30
2018,06,18,07,47,8.70
2018,06,18,07,48,4.30
2018,06,18,07,49,5.80
2018,06,18,07,50,6.20
2018,06,18,07,51,5.40
2018,06,18,07,52,5.20
2018,06,18,07,53,3.60
2018,06,18,07,54,3.80
2018,06,18,07,55,9.10
2018,06,18,07,56,2.70
2018,06,18,07,57,12.00
2018,06,18,07,58,12.10
2018,06,18,07,59,10.90
2018,06,18,08,00,8.40
2018,06,18,08,01,9.00
2018,06,18,08,02,4.00
2018,06,18,08,03,5.00
2018,06,18,08,04,4.40
2018,06,18,08,05,3.50
2018,06,18,08,06,8.40
2018,06,18,08,07,6.40
2018,06,18,08,08,11.00
2018,06,18,08,09,8.00
2018,06,18,08,10,5.30
2018,06,18,08,11,7.00
2018,06,18,08,12,9.00
2018,06,18,08,13,7.80
2018,06,18,08,14,11.30
2018,06,18,08,15,10.40
2018,06,18,08,16,15.30
2018,06,18,08,17,6.40
2018,06,18,08,18,9.80
2018,06,18,08,19,9.70
2018,06,18,08,20,10.70
2018,06,18,08,21,13.10
2018,06,18,08,22,4.10
2018,06,18,08,23,11.10
2018,06,18,08,24,12.20
2018,06,18,08,25,6.30
2018,06,18,08,26,7.60
2018,06,18,08,27,7.20
2018,06,18,08,28,13.30
2018,06,18,08,29,7.70
2018,06,18,08,30,3.40
2018,06,18,08,31,7.60
2018,06,18,08,32,4.00
2018,06,18,08,33,4.80
2018,06,18,08,34,5.70
2018,06,18,08,35,10.60
2018,06,18,08,36,11.50
2018,06,18,08,37,10.80
2018,06,18,08,38,7.90
2018,06,18,08,39,5.90
2018,06,18,08,40,3.00
2018,06,18,08,41,7.10
2018,06,18,08,42,2.20
2018,06,18,08,43,1.20
2018,06,18,08,44,4.20
2018,06,18,08,45,1.90
2018,06,18,08,46,11.00
2018,06,18,08,47,8.50
2018,06,18,08,48,8.70
2018,06,18,08,49,8.30
2018,06,18,08,50,9.40
2018,06,18,08,51,8.20
2018,06,18,08,52,11.60
2018,06,18,08,53,13.90
2018,06,18,08,54,13.50
2018,06,18,08,55,9.30
2018,06,18,08,56,9.50
2018,06,18,08,57,4.70
2018,06,18,08,58,8.80
2018,06,18,08,59,8.20
2018,06,18,09,00,13.10
2018,06,18,09,01,10.70
2018,06,18,09,02,10.40
2018,06,18,09,03,9.70
2018,06,18,09,04,6.70
2018,06,18,09,05,5.80
2018,06,18,09,06,3.10
2018,06,18,09,07,11.90
2018,06,18,09,08,11.40
2018,06,18,09,09,11.40
2018,06,18,09,10,11.40
2018,06,18,09,11,13.60
2018,06,18,09,12,13.70
2018,06,18,09,13,12.20
2018,06,18,09,14,9.40
2018,06,18,09,15,4.80
2018,06,18,09,16,5.30
2018,06,18,09,17,8.80
2018,06,18,09,18,6.60
2018,06,18,09,19,7.70
2018,06,18,09,20,1.70
2018,06,18,09,21,4.90
2018,06,18,09,22,6.10
2018,06,18,09,23,6.20
2018,06,18,09,24,7.20
2018,06,18,09,25,4.10
2018,06,18,09,26,7.10
2018,06,18,09,27,5.10
2018,06,18,09,28,7.30
2018,06,18,09,29,3.30
2018,06,18,09,30,2.30
2018,06,18,09,31,4.70
2018,06,18,09,32,6.00
2018,06,18,09,33,3.40
2018,06,18,09,34,3.10
2018,06,18,09,35,3.20
2018,06,18,09,36,5.40
2018,06,18,09,37,8.20
2018,06,18,09,38,3.40
2018,06,18,09,39,4.30
2018,06,18,09,40,3.90
2018,06,18,09,41,7.00
2018,06,18,09,42,4.10
2018,06,18,09,43,2.80
2018,06,18,09,44,5.10
2018,06,18,09,45,3.90
2018,06,18,09,46,1.50
2018,06,18,09,47,3.80
2018,06,18,09,48,1.70
2018,06,18,09,49,0.20
2018,06,18,09,50,2.10
2018,06,18,09,51,3.10
2018,06,18,09,52,4.70
2018,06,18,09,53,2.10
2018,06,18,09,54,0.90
2018,06,18,09,55,0.90
2018,06,18,09,56,1.20
2018,06,18,09,57,2.00
2018,06,18,09,58,1.80
2018,06,18,09,59,2.90
2018,06,18,10,00,4.30
2018,06,18,10,01,3.30
2018,06,18,10,02,2.10
2018,06,18,10,03,1.20
2018,06,18,10,04,3.60
2018,06,18,10,05,4.10
2018,06,18,10,06,3.30
2018,06,18,10,07,7.10
2018,06,18,10,08,2.80
2018,06,18,10,09,4.20
2018,06,18,10,10,0.40
2018,06,18,10,11,1.50
2018,06,18,10,12,1.20
2018,06,18,10,13,3.50
2018,06,18,10,14,2.20
2018,06,18,10,15,3.60
2018,06,18,10,16,4.40
2018,06,18,10,17,2.30
2018,06,18,10,18,2.10
2018,06,18,10,19,6.40
2018,06,18,10,20,8.10
2018,06,18,10,21,0.60
2018,06,18,10,22,3.00
2018,06,18,10,23,6.70
2018,06,18,10,24,2.30
2018,06,18,10,25,6.40
2018,06,18,10,26,2.10
2018,06,18,10,27,8.80
2018,06,18,10,28,6.80
2018,06,18,10,29,4.10
2018,06,18,10,30,5.50
2018,06,18,10,31,10.00
2018,06,18,10,32,10.40
2018,06,18,10,33,11.30
2018,06,18,10,34,7.90
2018,06,18,10,35,11.10
2018,06,18,10,36,7.40
2018,06,18,10,37,12.60
2018,06,18,10,38,9.70
2018,06,18,10,39,7.80
2018,06,18,10,40,8.10
2018,06,18,10,41,11.30
2018,06,18,10,42,7.80
2018,06,18,10,43,9.80
2018,06,18,10,44,10.60
2018,06,18,10,45,8.50
2018,06,18,10,46,5.70
2018,06,18,10,47,7.80
2018,06,18,10,48,10.70
2018,06,18,10,49,8.60
2018,06,18,10,50,10.30
2018,06,18,10,51,11.10
2018,06,18,10,52,7.60
2018,06,18,10,53,7.10
2018,06,18,10,54,6.50
2018,06,18,10,55,6.70
2018,06,18,10,56,8.80
2018,06,18,10,57,7.50
2018,06,18,10,58,7.00
2018,06,18,10,59,7.20
2018,06,18,11,00,2.60
2018,06,18,11,01,5.20
2018,06,18,11,02,8.30
2018,06,18,11,03,6.10
2018,06,18,11,04,10.00
2018,06,18,11,05,8.60
2018,06,18,11,06,8.50
2018,06,18,11,07,3.70
2018,06,18,11,08,6.90
2018,06,18,11,09,9.70
2018,06,18,11,10,7.90
2018,06,18,11,11,2.00
2018,06,18,11,12,6.70
2018,06,18,11,13,7.70
2018,06,18,11,14,6.10
2018,06,18,11,15,7.70
2018,06,18,11,16,3.10
2018,06,18,11,17,6.00
2018,06,18,11,18,12.90
2018,06,18,11,19,7.20
2018,06,18,11,20,7.90
2018,06,18,11,21,6.10
2018,06,18,11,22,2.10
2018,06,18,11,23,8.10
2018,06,18,11,24,3.40
2018,06,18,11,25,10.20
2018,06,18,11,26,7.30
2018,06,18,11,27,12.20
2018,06,18,11,28,17.50
2018,06,18,11,29,15.40
2018,06,18,11,30,13.00
2018,06,18,11,31,7.20
2018,06,18,11,32,10.10
2018,06,18,11,33,9.10
2018,06,18,11,34,10.00
2018,06,18,11,35,4.60
2018,06,18,11,36,9.20
2018,06,18,11,37,8.10
2018,06,18,11,38,7.50
2018,06,18,11,39,4.10
2018,06,18,11,40,4.20
2018,06,18,11,41,4.90
2018,06,18,11,42,6.10
2018,06,18,11,43,6.90
2018,06,18,11,44,6.00
2018,06,18,11,45,2.90
2018,06,18,11,46,3.50
2018,06,18,11,47,8.30
2018,06,18,11,48,7.50
2018,06,18,11,49,5.90
2018,06,18,11,50,5.80
2018,06,18,11,51,4.40
2018,06,18,11,52,4.30
2018,06,18,11,53,3.70
2018,06,18,11,54,9.30
2018,06,18,11,55,10.20
2018,06,18,11,56,4.90
2018,06,18,11,57,7.50
2018,06,18,11,58,12.30
2018,06,18,11,59,4.90
2018,06,18,12,00,4.10
2018,06,18,12,01,3.70
2018,06,18,12,02,6.80
2018,06,18,12,03,3.40
2018,06,18,12,04,6.80
2018,06,18,12,05,3.40
2018,06,18,12,06,6.10
2018,06,18,12,07,7.00
2018,06,18,12,08,11.80
2018,06,18,12,09,10.70
2018,06,18,12,10,5.50
2018,06,18,12,11,5.10
2018,06,18,12,12,10.50
2018,06,18,12,13,8.90
2018,06,18,12,14,10.40
2018,06,18,12,15,11.40
2018,06,18,12,16,8.10
2018,06,18,12,17,10.70
2018,06,18,12,18,12.80
2018,06,18,12,19,14.80
2018,06,18,12,20,14.20
2018,06,18,12,21,11.50
2018,06,18,12,22,12.60
2018,06,18,12,23,9.70
2018,06,18,12,24,15.20
2018,06,18,12,25,15.10
2018,06,18,12,26,7.80
2018,06,18,12,27,12.40
2018,06,18,12,28,13.40
2018,06,18,12,29,8.70
2018,06,18,12,30,11.30
2018,06,18,12,31,5.60
2018,06,18,12,32,7.70
2018,06,18,12,33,2.80
2018,06,18,12,34,7.40
2018,06,18,12,35,13.60
2018,06,18,12,36,10.00
2018,06,18,12,37,9.30
2018,06,18,12,38,8.10
2018,06,18,12,39,11.10
2018,06,18,12,40,14.30
2018,06,18,12,41,8.60
2018,06,18,12,42,5.40
2018,06,18,12,43,12.40
2018,06,18,12,44,15.10
2018,06,18,12,45,11.20
2018,06,18,12,46,9.60
2018,06,18,12,47,10.20
2018,06,18,12,48,13.20
2018,06,18,12,49,11.30
2018,06,18,12,50,11.60
2018,06,18,12,51,4.00
2018,06,18,12,52,4.40
2018,06,18,12,53,10.70
2018,06,18,12,54,7.30
2018,06,18,12,55,8.00
2018,06,18,12,56,12.50
2018,06,18,12,57,8.70
2018,06,18,12,58,9.30
2018,06,18,12,59,1.20
2018,06,18,13,00,6.20
2018,06,18,13,01,12.20
2018,06,18,13,02,12.90
2018,06,18,13,03,9.80
2018,06,18,13,04,12.20
2018,06,18,13,05,5.00
2018,06,18,13,06,11.80
2018,06,18,13,07,10.90
2018,06,18,13,08,5.80
2018,06,18,13,09,5.80
2018,06,18,13,10,10.10
2018,06,18,13,11,7.10
2018,06,18,13,12,10.80
2018,06,18,13,13,10.40
2018,06,18,13,14,9.20
2018,06,18,13,15,11.60
2018,06,18,13,16,7.30
2018,06,18,13,17,13.20
2018,06,18,13,18,9.60
2018,06,18,13,19,10.10
2018,06,18,13,20,8.50
2018,06,18,13,21,10.50
2018,06,18,13,22,12.70
2018,06,18,13,23,8.00
2018,06,18,13,24,8.40
2018,06,18,13,25,9.90
2018,06,18,13,26,8.70
2018,06,18,13,27,12.30
2018,06,18,13,28,8.10
2018,06,18,13,29,5.20
2018,06,18,13,30,8.80
2018,06,18,13,31,8.10
2018,06,18,13,32,8.10
2018,06,18,13,33,2.30
2018,06,18,13,34,7.30
2018,06,18,13,35,11.10
2018,06,18,13,36,11.70
2018,06,18,13,37,14.60
2018,06,18,13,38,11.10
2018,06,18,13,39,8.00
2018,06,18,13,40,17.50
2018,06,18,13,41,16.20
2018,06,18,13,42,13.40
2018,06,18,13,43,10.60
2018,06,18,13,44,9.80
2018,06,18,13,45,10.20
2018,06,18,13,46,8.70
2018,06,18,13,47,12.70
2018,06,18,13,48,13.40
2018,06,18,13,49,10.50
2018,06,18,13,50,11.50
2018,06,18,13,51,11.50
2018,06,18,13,52,9.20
2018,06,18,13,53,12.60
2018,06,18,13,54,14.30
2018,06,18,13,55,15.10
2018,06,18,13,56,9.40
2018,06,18,13,57,7.70
2018,06,18,13,58,15.00
2018,06,18,13,59,9.40
2018,06,18,14,00,7.50
2018,06,18,14,01,14.70
2018,06,18,14,02,13.00
2018,06,18,14,03,13.60
2018,06,18,14,04,15.60
2018,06,18,14,05,10.60
2018,06,18,14,06,14.00
2018,06,18,14,07,11.90
2018,06,18,14,08,14.50
2018,06,18,14,09,12.60
2018,06,18,14,10,11.60
2018,06,18,14,11,12.00
2018,06,18,14,12,13.40
2018,06,18,14,13,14.20
2018,06,18,14,14,13.50
2018,06,18,14,15,15.80
2018,06,18,14,16,13.80
2018,06,18,14,17,12.70
2018,06,18,14,18,11.40
2018,06,18,14,19,11.20
2018,06,18,14,20,8.20
2018,06,18,14,21,9.40
2018,06,18,14,22,14.90
2018,06,18,14,23,11.50
2018,06,18,14,24,8.30
2018,06,18,14,25,12.70
2018,06,18,14,26,11.50
2018,06,18,14,27,8.00
2018,06,18,14,28,14.20
2018,06,18,14,29,12.00
2018,06,18,14,30,9.90
2018,06,18,14,31,9.90
2018,06,18,14,32,14.60
2018,06,18,14,33,12.00
2018,06,18,14,34,17.50
2018,06,18,14,35,9.30
2018,06,18,14,36,9.70
2018,06,18,14,37,10.80
2018,06,18,14,38,7.00
2018,06,18,14,39,10.40
2018,06,18,14,40,10.00
2018,06,18,14,41,16.30
2018,06,18,14,42,12.30
2018,06,18,14,43,13.00
2018,06,18,14,44,11.30
2018,06,18,14,45,12.90
2018,06,18,14,46,12.80
2018,06,18,14,47,14.80
2018,06,18,14,48,13.40
2018,06,18,14,49,12.30
2018,06,18,14,50,11.30
2018,06,18,14,51,6.80
2018,06,18,14,52,10.00
2018,06,18,14,53,11.20
2018,06,18,14,54,11.80
2018,06,18,14,55,12.40
2018,06,18,14,56,10.40
2018,06,18,14,57,8.70
2018,06,18,14,58,11.70
2018,06,18,14,59,10.40
2018,06,18,15,00,7.00
2018,06,18,15,01,11.50
2018,06,18,15,02,12.10
2018,06,18,15,03,13.20
2018,06,18,15,04,12.10
2018,06,18,15,05,9.50
2018,06,18,15,06,3.10
2018,06,18,15,07,9.20
2018,06,18,15,08,9.70
2018,06,18,15,09,12.20
2018,06,18,15,10,11.30
2018,06,18,15,11,15.80
2018,06,18,15,12,13.00
2018,06,18,15,13,9.40
2018,06,18,15,14,7.60
2018,06,18,15,15,10.50
2018,06,18,15,16,14.20
2018,06,18,15,17,14.00
2018,06,18,15,18,8.50
2018,06,18,15,19,13.40
2018,06,18,15,20,13.40
2018,06,18,15,21,11.00
2018,06,18,15,22,12.50
2018,06,18,15,23,10.00
2018,06,18,15,24,11.10
2018,06,18,15,25,10.00
2018,06,18,15,26,13.80
2018,06,18,15,27,13.00
2018,06,18,15,28,10.90
2018,06,18,15,29,14.80
2018,06,18,15,30,15.40
2018,06,18,15,31,13.40
2018,06,18,15,32,15.00
2018,06,18,15,33,11.30
2018,06,18,15,34,7.70
2018,06,18,15,35,17.10
2018,06,18,15,36,11.80
2018,06,18,15,37,12.60
2018,06,18,15,38,15.30
2018,06,18,15,39,11.20
2018,06,18,15,40,15.50
2018,06,18,15,41,9.80
2018,06,18,15,42,10.20
2018,06,18,15,43,8.90
2018,06,18,15,44,13.90
2018,06,18,15,45,11.80
2018,06,18,15,46,9.90
2018,06,18,15,47,13.90
2018,06,18,15,48,15.40
2018,06,18,15,49,16.40
2018,06,18,15,50,11.90
2018,06,18,15,51,17.90
2018,06,18,15,52,13.10
2018,06,18,15,53,13.60
2018,06,18,15,54,12.40
2018,06,18,15,55,11.10
2018,06,18,15,56,11.30
2018,06,18,15,57,13.30
2018,06,18,15,58,5.00
2018,06,18,15,59,6.50
2018,06,18,16,00,7.70
2018,06,18,16,01,10.30
2018,06,18,16,02,13.30
2018,06,18,16,03,10.00
2018,06,18,16,04,11.60
2018,06,18,16,05,8.40
2018,06,18,16,06,12.60
2018,06,18,16,07,16.60
2018,06,18,16,08,8.30
2018,06,18,16,09,8.50
2018,06,18,16,10,7.70
2018,06,18,16,11,11.20
2018,06,18,16,12,5.70
2018,06,18,16,13,8.10
2018,06,18,16,14,13.40
2018,06,18,16,15,7.40
2018,06,18,16,16,7.40
2018,06,18,16,17,7.50
2018,06,18,16,18,10.00
2018,06,18,16,19,8.00
2018,06,18,16,20,10.90
2018,06,18,16,21,5.90
2018,06,18,16,22,9.90
2018,06,18,16,23,9.00
2018,06,18,16,24,11.90
2018,06,18,16,25,14.00
2018,06,18,16,26,13.50
2018,06,18,16,27,17.80
2018,06,18,16,28,8.40
2018,06,18,16,29,6.20
2018,06,18,16,30,9.40
2018,06,18,16,31,10.30
2018,06,18,16,32,12.20
2018,06,18,16,33,17.00
2018,06,18,16,34,15.00
2018,06,18,16,35,12.20
2018,06,18,16,36,13.50
2018,06,18,16,37,9.50
2018,06,18,16,38,10.10
2018,06,18,16,39,8.40
2018,06,18,16,40,8.90
2018,06,18,16,41,14.70
2018,06,18,16,42,5.70
2018,06,18,16,43,12.70
2018,06,18,16,44,12.00
2018,06,18,16,45,13.60
2018,06,18,16,46,12.60
2018,06,18,16,47,9.40
2018,06,18,16,48,9.70
2018,06,18,16,49,9.30
2018,06,18,16,50,11.70
2018,06,18,16,51,10.80
2018,06,18,16,52,12.20
2018,06,18,16,53,12.00
2018,06,18,16,54,15.20
2018,06,18,16,55,9.30
2018,06,18,16,56,10.00
2018,06,18,16,57,10.50
2018,06,18,16,58,9.80
2018,06,18,16,59,8.80
2018,06,18,17,00,14.10
2018,06,18,17,01,12.00
2018,06,18,17,02,11.40
2018,06,18,17,03,8.70
2018,06,18,17,04,8.40
2018,06,18,17,05,11.00
2018,06,18,17,06,10.60
2018,06,18,17,07,4.70
2018,06,18,17,08,6.40
2018,06,18,17,09,8.30
2018,06,18,17,10,10.80
2018,06,18,17,11,10.40
2018,06,18,17,12,7.10
2018,06,18,17,13,10.50
2018,06,18,17,14,10.10
2018,06,18,17,15,9.20
2018,06,18,17,16,11.40
2018,06,18,17,17,11.00
2018,06,18,17,18,9.40
2018,06,18,17,19,9.90
2018,06,18,17,20,9.40
2018,06,18,17,21,12.10
2018,06,18,17,22,13.20
2018,06,18,17,23,10.00
2018,06,18,17,24,10.50
2018,06,18,17,25,8.10
2018,06,18,17,26,10.90
2018,06,18,17,27,11.20
2018,06,18,17,28,11.80
2018,06,18,17,29,10.20
2018,06,18,17,30,9.10
2018,06,18,17,31,8.00
2018,06,18,17,32,10.80
2018,06,18,17,33,6.90
2018,06,18,17,34,9.30
2018,06,18,17,35,7.50
2018,06,18,17,36,7.60
2018,06,18,17,37,9.70
2018,06,18,17,38,8.90
2018,06,18,17,39,9.30
2018,06,18,17,40,10.30
2018,06,18,17,41,4.90
2018,06,18,17,42,7.00
2018,06,18,17,43,10.80
2018,06,18,17,44,7.40
2018,06,18,17,45,9.70
2018,06,18,17,46,8.60
2018,06,18,17,47,7.20
2018,06,18,17,48,8.30
2018,06,18,17,49,10.60
2018,06,18,17,50,8.10